Weather History for KICT - March, 2013

Change the Weather History Date:

Thursday, March 7, 2013

  Actual Average Record
Temperature  
Mean Temperature 49 °F 44 °F  
Max Temperature 67 °F 55 °F 78 °F (1974)
Min Temperature 31 °F 32 °F -3 °F (1943)
Degree Days  
Heating Degree Days 16 21  
Month to date heating degree days 196 156  
Since 1 July heating degree days 3467 3796  
Cooling Degree Days 0 0  
Month to date cooling degree days 0 0  
Year to date cooling degree days 0 0  
Moisture  
Dew Point 26 °F    
Average Humidity 46    
Maximum Humidity 69    
Minimum Humidity 22    
Precipitation  
Precipitation 0.00 in 0.08 in 0.38 in (1998)
Month to date precipitation 0.04 0.50  
Year to date precipitation 3.06 2.51  
Snow  
Snow 0.00 in 0.10 in 4.00 in (1969)
Month to date snowfall 0.0 0.6  
Since 1 July snowfall 24.5 13.0  
Snow Depth 0.00 in    
Sea Level Pressure  
Sea Level Pressure 30.08 in    
Wind  
Wind Speed 17 mph (SSE)    
Max Wind Speed 28 mph    
Max Gust Speed 35 mph    
Visibility 10 miles    
Events      
T = Trace of Precipitation, MM = Missing Value Source: NWS Daily Summary

Daily Weather History Graph

Daily Weather History Graph

Search for Another Location

Airport or City:

Trip Planner

Search our weather history database for the weather conditions in past years. The results will help you decide how hot, cold, wet, or windy it might be!

Date:

Astronomy

Mar. 07, 2013 Rise Set
Actual Time 6:52 AM CST 6:29 PM CST
Civil Twilight 6:26 AM CST 6:55 PM CST
Nautical Twilight 5:55 AM CST 7:26 PM CST
Astronomical Twilight 5:25 AM CST 7:56 PM CST
Moon 3:48 AM CST (3/7) 2:22 PM CST (3/7)
Length of Visible Light 12h 29m
Length of Day
11h 37m
Waning Crescent, 20% of the Moon is Illuminated
Mar 7
Waning Crescent
Mar 11
New
Mar 19
First Quarter
Mar 27
Full
Apr 2
Last Quarter

Hourly Weather History & Observations

Time (CST) Temp. Windchill Dew Point Humidity Pressure Visibility Wind Dir Wind Speed Gust Speed Precip Events Conditions
12:53 AM 36.0 °F 27.5 °F 23.0 °F 59% 30.19 in 10.0 mi SE 12.7 mph - N/A   Clear
1:53 AM 34.0 °F 25.0 °F 24.1 °F 67% 30.19 in 10.0 mi SE 12.7 mph - N/A   Clear
2:53 AM 34.0 °F 25.5 °F 24.1 °F 67% 30.17 in 10.0 mi SE 11.5 mph - N/A   Partly Cloudy
3:53 AM 34.0 °F 25.0 °F 24.1 °F 67% 30.15 in 10.0 mi SE 12.7 mph - N/A   Scattered Clouds
4:53 AM 35.1 °F 25.9 °F 24.1 °F 64% 30.14 in 8.0 mi SE 13.8 mph - N/A   Scattered Clouds
5:53 AM 34.0 °F 25.0 °F 24.1 °F 67% 30.13 in 9.0 mi SE 12.7 mph - N/A   Partly Cloudy
6:53 AM 37.0 °F 27.7 °F 21.9 °F 54% 30.13 in 10.0 mi SE 16.1 mph - N/A   Scattered Clouds
7:53 AM 39.0 °F 30.6 °F 23.0 °F 53% 30.13 in 10.0 mi SE 15.0 mph - N/A   Clear
8:53 AM 44.1 °F 36.2 °F 24.1 °F 45% 30.14 in 10.0 mi SSE 18.4 mph 23.0 mph N/A   Clear
9:53 AM 48.9 °F - 25.0 °F 39% 30.12 in 10.0 mi SSE 19.6 mph 26.5 mph N/A   Clear
10:53 AM 55.9 °F - 25.0 °F 30% 30.10 in 10.0 mi South 25.3 mph 31.1 mph N/A   Clear
11:53 AM 60.1 °F - 25.0 °F 26% 30.09 in 10.0 mi South 23.0 mph 31.1 mph N/A   Clear
12:53 PM 62.1 °F - 25.0 °F 24% 30.06 in 10.0 mi South 24.2 mph 27.6 mph N/A   Partly Cloudy
1:53 PM 64.9 °F - 24.1 °F 21% 30.03 in 10.0 mi South 25.3 mph 31.1 mph N/A   Partly Cloudy
2:53 PM 66.0 °F - 26.1 °F 22% 30.01 in 10.0 mi South 23.0 mph 28.8 mph N/A   Partly Cloudy
3:53 PM 66.9 °F - 26.1 °F 21% 30.00 in 10.0 mi South 25.3 mph 29.9 mph N/A   Partly Cloudy
4:53 PM 66.0 °F - 26.1 °F 22% 29.99 in 10.0 mi South 19.6 mph 26.5 mph N/A   Partly Cloudy
5:53 PM 63.0 °F - 28.9 °F 28% 30.01 in 10.0 mi SSE 16.1 mph 21.9 mph N/A   Partly Cloudy
6:53 PM 59.0 °F - 28.9 °F 32% 30.02 in 10.0 mi SE 12.7 mph - N/A   Partly Cloudy
7:53 PM 55.9 °F - 30.0 °F 37% 30.03 in 10.0 mi SE 12.7 mph - N/A   Clear
8:53 PM 54.0 °F - 30.0 °F 40% 30.04 in 10.0 mi SE 12.7 mph - N/A   Clear
9:53 PM 55.0 °F - 30.0 °F 38% 30.06 in 10.0 mi SSE 17.3 mph - N/A   Clear
10:53 PM 53.1 °F - 28.9 °F 40% 30.05 in 10.0 mi SSE 16.1 mph - N/A   Clear
11:53 PM 50.0 °F - 30.0 °F 46% 30.06 in 10.0 mi SE 12.7 mph - N/A   Scattered Clouds